Weather History for Roanoke Rapids, NC

Change the Weather History Date:

Friday, February 22, 2013

  Actual Average (KEMV) Record (KEMV)
Temperature  
Mean Temperature 38 °F -  
Max Temperature 42 °F 60 °F 69 °F (2007)
Min Temperature 33 °F 31 °F 16 °F (1988)
Degree Days  
Heating Degree Days 28    
Moisture  
Dew Point 28 °F    
Average Humidity 66    
Maximum Humidity 100    
Minimum Humidity 48    
Precipitation  
Precipitation 0.04 in - - ()
Sea Level Pressure  
Sea Level Pressure 30.27 in    
Wind  
Wind Speed 5 mph (NE)    
Max Wind Speed 10 mph    
Max Gust Speed -    
Visibility 9 miles    
Events Rain , Snow    
Averages and records for this station are not official NWS values.
T = Trace of Precipitation, MM = Missing Value Source: NWS Daily Summary

Daily Weather History Graph

Daily Weather History Graph

Search for Another Location

Airport:

Trip Planner

Search our weather history database for the weather conditions in past years. The results will help you decide how hot, cold, wet, or windy it might be!

Date:

Astronomy

Feb. 22, 2013 Rise Set
Actual Time 6:49 AM EST 5:58 PM EST
Civil Twilight 6:23 AM EST 6:24 PM EST
Nautical Twilight 5:53 AM EST 6:54 PM EST
Astronomical Twilight 5:23 AM EST 7:24 PM EST
Moon 3:11 PM EST 4:29 AM EST
Length of Visible Light 12h 01m
Length of Day
11h 09m
Waxing Gibbous, 90% of the Moon is Illuminated
Feb 22
Waxing Gibbous
Feb 25
Full
Mar 4
Last Quarter
Mar 11
New
Mar 19
First Quarter

Hourly Weather History & Observations

Time (EST) Temp. Windchill Dew Point Humidity Pressure Visibility Wind Dir Wind Speed Gust Speed Precip Events Conditions
12:15 AM 37.4 °F 33.8 °F 21.2 °F 52% 30.30 in 10.0 mi NE 4.6 mph - N/A   Clear
12:35 AM 37.4 °F 33.8 °F 21.2 °F 52% 30.31 in 10.0 mi NNE 4.6 mph - N/A   Clear
12:55 AM 37.4 °F 31.4 °F 19.4 °F 48% 30.29 in 10.0 mi NE 8.1 mph - N/A   Clear
1:15 AM 37.4 °F 30.3 °F 19.4 °F 48% 30.29 in 10.0 mi NNE 10.4 mph - N/A   Scattered Clouds
1:35 AM 37.4 °F 30.3 °F 21.2 °F 52% 30.31 in 10.0 mi NE 10.4 mph - N/A   Scattered Clouds
1:55 AM 35.6 °F 29.2 °F 21.2 °F 56% 30.32 in 10.0 mi NNE 8.1 mph - N/A   Overcast
2:15 AM 35.6 °F 31.7 °F 21.2 °F 56% 30.36 in 10.0 mi North 4.6 mph - N/A   Overcast
2:55 AM 35.6 °F 30.7 °F 21.2 °F 56% 30.35 in 10.0 mi NNE 5.8 mph - N/A   Overcast
3:15 AM 35.6 °F 32.8 °F 21.2 °F 56% 30.34 in 10.0 mi NNE 3.5 mph - N/A   Overcast
3:35 AM 35.6 °F 31.7 °F 21.2 °F 56% 30.34 in 10.0 mi North 4.6 mph - N/A   Overcast
3:55 AM 35.6 °F 31.7 °F 21.2 °F 56% 30.33 in 10.0 mi NNE 4.6 mph - N/A   Overcast
4:15 AM 35.6 °F 32.8 °F 21.2 °F 56% 30.34 in 10.0 mi North 3.5 mph - N/A   Overcast
4:35 AM 35.6 °F 32.8 °F 21.2 °F 56% 30.35 in 10.0 mi NNE 3.5 mph - N/A   Overcast
5:15 AM 35.6 °F 31.7 °F 21.2 °F 56% 30.34 in 10.0 mi NNE 4.6 mph - N/A   Overcast
5:35 AM 35.6 °F 30.7 °F 21.2 °F 56% 30.33 in 10.0 mi NE 5.8 mph - N/A   Overcast
5:55 AM 35.6 °F 30.7 °F 23.0 °F 60% 30.31 in 10.0 mi ENE 5.8 mph - N/A Snow Light Snow
6:15 AM 33.8 °F 28.6 °F 23.0 °F 65% 30.28 in 10.0 mi East 5.8 mph - N/A Rain Light Rain
6:35 AM 33.8 °F 27.7 °F 24.8 °F 70% 30.29 in 10.0 mi NE 6.9 mph - N/A   Light Drizzle
6:55 AM 33.8 °F 30.8 °F 23.0 °F 65% 30.27 in 10.0 mi ENE 3.5 mph - N/A   Overcast
7:15 AM 35.6 °F 29.9 °F 23.0 °F 60% 30.28 in 10.0 mi NE 6.9 mph - N/A   Overcast
7:35 AM 35.6 °F 29.9 °F 23.0 °F 60% 30.30 in 10.0 mi NNE 6.9 mph - N/A   Overcast
8:15 AM 35.6 °F 29.9 °F 23.0 °F 60% 30.30 in 10.0 mi NE 6.9 mph - N/A   Overcast
8:35 AM 35.6 °F - 23.0 °F 60% 30.32 in 10.0 mi Calm Calm - N/A   Overcast
9:15 AM 37.4 °F - 23.0 °F 56% 30.34 in 10.0 mi Calm Calm - N/A   Overcast
9:35 AM 37.4 °F 33.8 °F 23.0 °F 56% 30.33 in 10.0 mi ESE 4.6 mph - N/A   Overcast
9:55 AM 37.4 °F 33.8 °F 24.8 °F 60% 30.34 in 10.0 mi East 4.6 mph - N/A   Overcast
10:15 AM 37.4 °F - 23.0 °F 56% 30.34 in 10.0 mi Calm Calm - N/A   Overcast
10:35 AM 37.4 °F 33.8 °F 24.8 °F 60% 30.33 in 10.0 mi East 4.6 mph - N/A   Mostly Cloudy
10:55 AM 39.2 °F 35.9 °F 26.6 °F 61% 30.32 in 10.0 mi East 4.6 mph - N/A   Scattered Clouds
11:15 AM 41.0 °F 36.4 °F 26.6 °F 57% 30.32 in 10.0 mi East 6.9 mph - N/A   Mostly Cloudy
11:35 AM 41.0 °F 39.0 °F 26.6 °F 57% 30.31 in 10.0 mi ESE 3.5 mph - N/A   Overcast
11:55 AM 41.0 °F 36.4 °F 26.6 °F 57% 30.31 in 10.0 mi SSE 6.9 mph - N/A   Overcast
12:15 PM 41.0 °F 36.4 °F 26.6 °F 57% 30.30 in 10.0 mi ESE 6.9 mph - N/A   Overcast
12:35 PM 41.0 °F 38.0 °F 26.6 °F 57% 30.30 in 10.0 mi ENE 4.6 mph - N/A   Overcast
1:15 PM 42.8 °F 39.3 °F 28.4 °F 57% 30.27 in 10.0 mi East 5.8 mph - N/A   Overcast
1:35 PM 42.8 °F 41.1 °F 26.6 °F 53% 30.26 in 10.0 mi East 3.5 mph - N/A   Overcast
1:55 PM 42.8 °F 40.1 °F 28.4 °F 57% 30.26 in 10.0 mi East 4.6 mph - N/A   Overcast
2:15 PM 42.8 °F 39.3 °F 28.4 °F 57% 30.25 in 10.0 mi ESE 5.8 mph - N/A   Overcast
2:35 PM 42.8 °F 40.1 °F 28.4 °F 57% 30.23 in 10.0 mi ENE 4.6 mph - N/A   Overcast
2:55 PM 42.8 °F - 28.4 °F 57% 30.24 in 10.0 mi Calm Calm - N/A   Overcast
3:15 PM 42.8 °F 40.1 °F 28.4 °F 57% 30.24 in 10.0 mi East 4.6 mph - N/A   Overcast
3:35 PM 42.8 °F - 28.4 °F 57% 30.25 in 10.0 mi Calm Calm - N/A   Overcast
3:55 PM 42.8 °F 41.1 °F 28.4 °F 57% 30.24 in 10.0 mi NE 3.5 mph - N/A   Overcast
4:15 PM 42.8 °F 40.1 °F 28.4 °F 57% 30.24 in 10.0 mi NNE 4.6 mph - N/A   Overcast
4:35 PM 42.8 °F 40.1 °F 30.2 °F 61% 30.23 in 10.0 mi ENE 4.6 mph - N/A   Light Drizzle
4:55 PM 42.8 °F 41.1 °F 30.2 °F 61% 30.23 in 10.0 mi NE 3.5 mph - N/A   Overcast
5:15 PM 42.8 °F - 30.2 °F 61% 30.23 in 10.0 mi Calm Calm - N/A   Overcast
5:35 PM 42.8 °F 39.3 °F 32.0 °F 66% 30.22 in 10.0 mi NE 5.8 mph - N/A   Overcast
6:15 PM 42.8 °F - 32.0 °F 66% 30.21 in 10.0 mi Calm Calm - N/A   Overcast
6:35 PM 41.0 °F 39.0 °F 33.8 °F 76% 30.22 in 10.0 mi NE 3.5 mph - N/A   Drizzle
7:15 PM 39.2 °F 37.0 °F 35.6 °F 87% 30.20 in 10.0 mi ENE 3.5 mph - N/A Rain Light Rain
7:35 PM 39.2 °F - 35.6 °F 87% 30.19 in 10.0 mi Calm Calm - N/A   Light Drizzle
7:55 PM 39.2 °F - 37.4 °F 93% 30.18 in 10.0 mi Calm Calm - N/A   Overcast
8:15 PM 39.2 °F 35.0 °F 37.4 °F 93% 30.19 in 10.0 mi North 5.8 mph - N/A   Overcast
8:35 PM 39.2 °F 34.2 °F 37.4 °F 93% 30.20 in 10.0 mi NNW 6.9 mph - N/A   Drizzle
8:55 PM 39.2 °F 35.9 °F 37.4 °F 93% 30.19 in 5.0 mi North 4.6 mph - 0.01 in Rain Rain
9:15 PM 39.2 °F 35.9 °F 37.4 °F 93% 30.20 in 5.0 mi North 4.6 mph - N/A Rain Rain
9:35 PM 37.4 °F - 37.4 °F 100% 30.18 in 4.0 mi Calm Calm - 0.01 in Rain Heavy Rain
9:55 PM 37.4 °F 34.9 °F 37.4 °F 100% 30.17 in 4.0 mi NE 3.5 mph - 0.01 in   Drizzle
10:15 PM 39.2 °F - 39.2 °F 100% 30.17 in 4.0 mi Calm Calm - N/A   Light Drizzle
10:35 PM 39.2 °F 34.2 °F 39.2 °F 100% 30.18 in 5.0 mi NNW 6.9 mph - N/A   Drizzle
11:15 PM 39.2 °F 35.0 °F 39.2 °F 100% 30.17 in 3.0 mi North 5.8 mph - N/A   Drizzle
11:35 PM 39.2 °F 34.2 °F 39.2 °F 100% 30.16 in 2.5 mi North 6.9 mph - 0.01 in Rain Light Rain
11:55 PM 39.2 °F 35.0 °F 39.2 °F 100% 30.15 in 4.0 mi North 5.8 mph - 0.02 in Rain Rain